S59ZO-6 Weather Reports


time (UTC)temp
F
wind
direction
speed
knots
gust
knots
rain 1hr
in
rain 24hr
in
rain mn
in
humidity
%
barometer
mb
20260906064004 65 160 0.0 1.7 0.00 0.00 0.00 76 1025.3
20260906063503 64 146 0.0 1.7 0.00 0.00 0.00 77 1025.2
20260906063004 64 45 0.0 1.7 0.00 0.00 0.00 78 1025.3
20260906062503 64 45 0.9 1.7 0.00 0.00 0.00 79 1025.1
20260906062003 63 45 0.9 1.7 0.00 0.00 0.00 82 1025.2
20260906061504 63 45 0.0 1.7 0.00 0.00 0.00 83 1025.2
20260906061004 62 45 0.0 0.9 0.00 0.00 0.00 83 1024.9
20260906060504 61 135 0.0 1.7 0.00 0.00 0.00 84 1025.1
20260906060004 61 135 0.0 1.7 0.00 0.00 0.00 84 1024.9
20260906055504 61 135 0.9 1.7 0.00 0.00 0.00 84 1024.9
20260906055004 60 135 0.0 0.9 0.00 0.00 0.00 84 1024.9
20260906054503 60 45 0.0 0.9 0.00 0.00 0.00 84 1024.9
20260906054004 60 49 0.0 1.7 0.00 0.00 0.00 84 1024.9
20260906053503 60 73 0.9 1.7 0.00 0.00 0.00 84 1024.9
20260906053004 60 124 0.0 1.7 0.00 0.00 0.00 84 1024.9
20260906052504 60 135 0.0 0.9 0.00 0.00 0.00 84 1024.7
20260906052004 60 135 0.0 1.7 0.00 0.00 0.00 84 1024.6
20260906051504 59 160 0.0 1.7 0.00 0.00 0.00 84 1024.7
20260906051004 59 166 0.9 1.7 0.00 0.00 0.00 84 1024.6
20260906050503 59 89 0.9 1.7 0.00 0.00 0.00 84 1024.5
20260906050005 59 120 0.0 1.7 0.00 0.00 0.00 84 1024.3
20260906045503 59 135 0.0 1.7 0.00 0.00 0.00 85 1024.4
20260906045004 59 74 0.0 1.7 0.00 0.00 0.00 84 1024.3
20260906044504 59 107 0.0 1.7 0.00 0.00 0.00 84 1024.4
20260906044005 59 171 0.0 1.7 0.00 0.00 0.00 84 1024.3
20260906043504 59 181 0.9 1.7 0.00 0.00 0.00 83 1024.4
20260906043004 59 0 0.0 0.0 0.00 0.00 0.00 83 1024.2
20260906042503 59 0 0.0 0.0 0.00 0.00 0.00 83 1024.3
20260906042004 59 0 0.0 0.0 0.00 0.00 0.00 83 1024.3
20260906041504 60 0 0.0 0.0 0.00 0.00 0.00 83 1024.1
20260906041004 60 0 0.0 0.0 0.00 0.00 0.00 82 1024.1
20260906040503 60 0 0.0 0.0 0.00 0.00 0.00 82 1024.1
20260906040004 60 0 0.0 0.0 0.00 0.00 0.00 82 1024.0
20260906035503 60 0 0.0 0.0 0.00 0.00 0.00 82 1023.9
20260906035004 60 0 0.0 0.0 0.00 0.00 0.00 82 1023.9
20260906034503 61 0 0.0 0.0 0.00 0.00 0.00 82 1024.0
20260906034004 61 0 0.0 0.0 0.00 0.00 0.00 83 1024.0
20260906033503 61 0 0.0 0.0 0.00 0.00 0.00 83 1024.0
20260906033004 61 0 0.0 0.0 0.00 0.00 0.00 83 1023.9
20260906032504 61 0 0.0 0.0 0.00 0.00 0.00 83 1023.8
20260906032004 61 0 0.0 0.0 0.00 0.00 0.00 83 1023.8
20260906031504 61 0 0.0 0.0 0.00 0.00 0.00 83 1023.8
20260906031004 61 0 0.0 0.0 0.00 0.00 0.00 82 1023.7
20260906030503 61 0 0.0 0.0 0.00 0.00 0.00 82 1023.6
20260906030004 61 0 0.0 0.0 0.00 0.00 0.00 82 1023.6
20260906025504 62 0 0.0 0.0 0.00 0.00 0.00 81 1023.7
20260906025004 62 0 0.0 0.0 0.00 0.00 0.00 82 1023.4
20260906024504 62 0 0.0 0.0 0.00 0.00 0.00 82 1023.5
20260906024004 62 0 0.0 0.0 0.00 0.00 0.00 81 1023.5
20260906023503 62 0 0.0 0.0 0.00 0.00 0.00 81 1023.4
20260906023003 62 0 0.0 0.0 0.00 0.00 0.00 81 1023.5
20260906022503 63 161 0.0 1.7 0.00 0.00 0.00 81 1023.7
20260906022004 63 154 0.0 1.7 0.00 0.00 0.00 82 1023.6
20260906021504 63 135 0.0 0.9 0.00 0.00 0.00 81 1023.6
20260906021005 63 135 0.0 0.9 0.00 0.00 0.00 81 1023.5
20260906020505 63 135 0.0 0.9 0.00 0.00 0.00 81 1023.4
20260906020005 63 135 0.0 0.9 0.00 0.00 0.00 81 1023.5
20260906015505 63 164 0.0 0.9 0.00 0.00 0.00 81 1023.3
20260906015006 63 177 0.0 1.7 0.00 0.00 0.00 81 1023.3
20260906014505 63 182 0.0 1.7 0.00 0.00 0.00 80 1023.3
20260906014005 63 150 1.7 1.7 0.00 0.00 0.00 80 1023.4
20260906013504 64 45 0.0 1.7 0.00 0.00 0.00 76 1023.2
20260906013006 64 45 0.9 1.7 0.00 0.00 0.00 76 1023.3
20260906012505 64 135 0.0 0.9 0.00 0.00 0.00 76 1023.3
20260906012005 64 135 0.0 0.9 0.00 0.00 0.00 76 1023.3
20260906011505 64 135 0.0 1.7 0.00 0.00 0.00 76 1023.4
20260906011006 64 135 0.0 1.7 0.00 0.00 0.00 75 1023.2
20260906010505 64 135 0.0 1.7 0.00 0.00 0.00 75 1023.2
20260906010005 64 133 0.0 1.7 0.00 0.00 0.00 75 1023.1
20260906005505 64 130 0.9 1.7 0.00 0.00 0.00 75 1023.1
20260906005006 64 45 0.0 0.9 0.00 0.00 0.00 75 1023.0
20260906004504 64 0 0.0 0.0 0.00 0.00 0.00 75 1023.1
20260906004005 64 148 0.0 1.7 0.00 0.00 0.00 75 1023.1
20260906003505 64 151 0.0 1.7 0.00 0.00 0.00 74 1023.1
20260906003005 64 154 0.9 1.7 0.00 0.00 0.00 74 1023.1
20260906002505 65 135 0.0 1.7 0.00 0.00 0.00 74 1023.0
20260906002006 65 59 0.0 1.7 0.00 0.00 0.00 74 1022.9
20260906001505 65 50 0.0 1.7 0.00 0.00 0.00 73 1022.9
20260906001005 65 0 0.0 0.0 0.00 0.00 0.00 73 1022.8
20260906000505 65 0 0.0 0.0 0.00 0.00 0.00 73 1022.9
20260906000005 65 124 0.0 0.9 0.00 0.00 0.00 73 1022.8
20260905235505 65 105 0.0 0.9 0.00 0.00 0.00 74 1022.9
20260905235006 65 90 0.0 0.9 0.00 0.00 0.00 74 1022.7
20260905234505 65 0 0.0 0.0 0.00 0.00 0.00 74 1022.7
20260905234005 65 0 0.0 0.0 0.00 0.00 0.00 74 1022.7
20260905233505 65 0 0.0 0.0 0.00 0.00 0.00 74 1022.7
20260905233006 65 0 0.0 0.0 0.00 0.00 0.00 74 1022.6
20260905232505 65 135 0.0 0.9 0.00 0.00 0.00 74 1022.5
20260905232005 65 135 0.0 1.7 0.00 0.00 0.00 74 1022.5
20260905231505 65 135 0.9 1.7 0.00 0.00 0.00 73 1022.5
20260905231005 65 181 0.0 1.7 0.00 0.00 0.00 73 1022.4
20260905230505 65 168 0.0 1.7 0.00 0.00 0.00 73 1022.6
20260905230005 65 164 0.9 1.7 0.00 0.00 0.00 73 1022.7
20260905225505 65 165 0.0 1.7 0.00 0.00 0.00 73 1022.7
20260905225005 65 0 0.0 0.0 0.00 0.00 0.00 73 1022.6
20260905224505 65 0 0.0 0.0 0.00 0.00 0.00 73 1022.5
20260905224005 65 0 0.0 0.0 0.00 0.00 0.00 72 1022.5
20260905223506 66 0 0.0 0.0 0.00 0.00 0.00 72 1022.4
20260905223006 66 181 0.0 1.7 0.00 0.00 0.00 72 1022.4
20260905222504 66 181 0.0 1.7 0.00 0.00 0.00 72 1022.2
20260905222005 66 21 0.0 0.9 0.00 0.00 0.00 72 1022.2
20260905221505 67 33 0.0 0.9 0.00 0.00 0.00 71 1022.2
20260905221005 67 0 0.0 0.0 0.00 0.00 0.00 71 1022.3
20260905220505 67 135 0.0 0.9 0.00 0.00 0.00 71 1022.2
20260905220007 67 135 0.0 0.9 0.00 0.00 0.00 71 1022.3
20260905215505 67 135 0.0 0.9 0.00 0.00 0.00 71 1022.2
20260905215005 67 135 0.0 1.7 0.00 0.00 0.00 71 1022.4
20260905214505 67 143 0.0 1.7 0.00 0.00 0.00 71 1022.3
20260905214006 67 151 0.0 1.7 0.00 0.00 0.00 71 1022.2
20260905213505 67 151 0.0 1.7 0.00 0.00 0.00 70 1022.2
20260905213005 68 129 0.9 1.7 0.00 0.00 0.00 70 1022.1
20260905212505 68 90 0.0 0.9 0.00 0.00 0.00 70 1022.0
20260905212006 68 90 0.0 0.9 0.00 0.00 0.00 70 1022.0
20260905211504 68 181 0.0 0.9 0.00 0.00 0.00 71 1022.0
20260905211005 68 54 0.0 0.9 0.00 0.00 0.00 71 1022.0
20260905210505 68 45 0.0 0.9 0.00 0.00 0.00 70 1022.0
20260905210005 69 46 0.0 0.9 0.00 0.00 0.00 70 1022.0
20260905205504 69 165 0.0 1.7 0.00 0.00 0.00 70 1022.1
20260905205005 69 173 0.0 1.7 0.00 0.00 0.00 70 1021.9
20260905204505 69 168 1.7 1.7 0.00 0.00 0.00 70 1021.9
20260905204006 69 80 0.0 1.7 0.00 0.00 0.00 70 1021.9
20260905203505 69 42 0.0 2.6 0.00 0.00 0.00 70 1021.7
20260905203005 69 17 1.7 2.6 0.00 0.00 0.00 70 1021.9
20260905202505 68 12 1.7 2.6 0.00 0.00 0.00 70 1021.9
20260905202005 69 30 1.7 2.6 0.00 0.00 0.00 70 1021.8
20260905201504 69 141 0.0 1.7 0.00 0.00 0.00 69 1021.9
20260905201005 69 175 0.9 1.7 0.00 0.00 0.00 68 1021.7
20260905200505 69 171 0.9 1.7 0.00 0.00 0.00 68 1021.6
20260905200005 69 157 0.9 1.7 0.00 0.00 0.00 68 1021.6
20260905195504 69 126 1.7 1.7 0.00 0.00 0.00 67 1021.5
20260905195006 69 130 0.0 1.7 0.00 0.00 0.00 66 1021.6
20260905194505 70 151 0.9 1.7 0.00 0.00 0.00 65 1021.4
20260905194005 70 170 0.9 3.5 0.00 0.00 0.00 65 1021.4
20260905193504 70 150 2.6 3.5 0.00 0.00 0.00 65 1021.3
20260905193005 70 54 0.9 1.7 0.00 0.00 0.00 64 1021.2
20260905192505 71 128 0.9 1.7 0.00 0.00 0.00 63 1021.0
20260905192005 71 135 0.9 1.7 0.00 0.00 0.00 63 1021.1
20260905191505 71 135 0.0 0.9 0.00 0.00 0.00 62 1021.0
20260905191005 71 135 0.0 0.9 0.00 0.00 0.00 62 1021.1
20260905190504 71 135 0.0 1.7 0.00 0.00 0.00 62 1020.9
20260905190006 71 157 0.0 3.5 0.00 0.00 0.00 62 1021.0
20260905185505 71 151 1.7 3.5 0.00 0.00 0.00 61 1020.8
20260905185005 72 119 0.9 2.6 0.00 0.00 0.00 61 1020.9
20260905184504 72 126 0.9 2.6 0.00 0.00 0.00 56 1020.6
20260905184005 73 144 0.9 1.7 0.00 0.00 0.00 55 1020.7
20260905183504 73 158 0.0 0.9 0.00 0.00 0.00 55 1020.5
20260905183005 74 150 0.0 1.7 0.00 0.00 0.00 54 1020.4
20260905182505 74 163 0.0 1.7 0.00 0.00 0.00 54 1020.5
20260905182005 74 188 1.7 1.7 0.00 0.00 0.00 53 1020.4
20260905181504 75 45 0.0 0.9 0.00 0.00 0.00 52 1020.3
20260905181005 75 45 0.0 0.9 0.00 0.00 0.00 51 1020.2
20260905180504 76 45 0.0 1.7 0.00 0.00 0.00 50 1020.1
20260905180005 76 45 0.0 1.7 0.00 0.00 0.00 50 1020.2
20260905175505 76 45 1.7 2.6 0.00 0.00 0.00 48 1019.9
20260905175005 76 32 0.0 2.6 0.00 0.00 0.00 48 1019.9
20260905174505 77 35 1.7 2.6 0.00 0.00 0.00 47 1019.8
20260905174006 78 60 1.7 2.6 0.00 0.00 0.00 45 1019.9
20260905173504 78 264 0.0 0.9 0.00 0.00 0.00 45 1019.6
20260905173005 78 104 0.0 1.7 0.00 0.00 0.00 45 1019.5
20260905172505 78 107 0.0 1.7 0.00 0.00 0.00 45 1019.3
20260905172005 79 112 0.9 1.7 0.00 0.00 0.00 46 1019.3
20260905171504 79 90 0.0 1.7 0.00 0.00 0.00 47 1019.4
20260905171005 78 64 0.9 1.7 0.00 0.00 0.00 47 1019.2
20260905170505 78 114 0.0 1.7 0.00 0.00 0.00 47 1019.2
20260905170005 78 128 0.0 1.7 0.00 0.00 0.00 47 1019.2
20260905165504 78 70 0.9 3.5 0.00 0.00 0.00 47 1019.3
20260905165004 78 37 1.7 3.5 0.00 0.00 0.00 46 1019.4
20260905164504 79 53 0.9 5.2 0.00 0.00 0.00 46 1019.5
20260905164005 78 61 1.7 5.2 0.00 0.00 0.00 46 1019.4
20260905163505 78 4 3.5 6.1 0.00 0.00 0.00 46 1019.3
20260905163005 78 11 1.7 9.6 0.00 0.00 0.00 47 1019.1
20260905162504 78 19 2.6 9.6 0.00 0.00 0.00 48 1019.1
20260905162005 78 15 4.3 9.6 0.00 0.00 0.00 48 1019.0
20260905161505 78 12 2.6 7.0 0.00 0.00 0.00 48 1018.9
20260905161005 78 6 3.5 7.0 0.00 0.00 0.00 47 1019.0
20260905160504 80 7 2.6 5.2 0.00 0.00 0.00 45 1018.9
20260905160005 80 16 2.6 5.2 0.00 0.00 0.00 45 1018.9
20260905155505 80 20 3.5 4.3 0.00 0.00 0.00 44 1018.8
20260905155005 80 9 1.7 5.2 0.00 0.00 0.00 44 1018.7
20260905154504 81 7 3.5 5.2 0.00 0.00 0.00 42 1018.8
20260905154005 82 27 1.7 3.5 0.00 0.00 0.00 39 1018.6
20260905153505 82 95 2.6 3.5 0.00 0.00 0.00 38 1018.5
20260905153006 83 109 1.7 3.5 0.00 0.00 0.00 37 1018.3
20260905152505 83 106 1.7 3.5 0.00 0.00 0.00 37 1018.3
20260905152005 83 89 2.6 3.5 0.00 0.00 0.00 36 1018.0
20260905151504 83 136 1.7 3.5 0.00 0.00 0.00 37 1018.2
20260905151005 83 149 1.7 3.5 0.00 0.00 0.00 37 1018.1
20260905150504 83 136 2.6 3.5 0.00 0.00 0.00 37 1018.0
20260905150004 83 154 1.7 3.5 0.00 0.00 0.00 38 1017.9
20260905145504 83 142 1.7 3.5 0.00 0.00 0.00 38 1017.9
20260905145005 83 39 0.9 5.2 0.00 0.00 0.00 39 1017.9
20260905144505 83 102 1.7 7.0 0.00 0.00 0.00 38 1017.8
20260905144005 83 91 2.6 7.0 0.00 0.00 0.00 38 1017.7
20260905143504 83 25 3.5 6.1 0.00 0.00 0.00 37 1017.6
20260905143005 83 13 3.5 8.7 0.00 0.00 0.00 36 1017.7
20260905142505 83 33 3.5 13.0 0.00 0.00 0.00 37 1017.7
20260905142004 84 32 1.7 13.0 0.00 0.00 0.00 37 1017.9
20260905141504 83 60 4.3 8.7 0.00 0.00 0.00 38 1017.8
20260905141005 83 123 3.5 7.8 0.00 0.00 0.00 39 1017.8
20260905140504 85 115 5.2 7.8 0.00 0.00 0.00 38 1017.9
20260905140005 85 33 5.2 9.6 0.00 0.00 0.00 38 1017.7
20260905135504 86 36 1.7 9.6 0.00 0.00 0.00 37 1017.7
20260905135005 87 157 6.1 9.6 0.00 0.00 0.00 37 1017.7
20260905134504 88 317 1.7 5.2 0.00 0.00 0.00 37 1017.6
20260905134004 88 267 2.6 5.2 0.00 0.00 0.00 36 1017.6
20260905133504 89 172 1.7 6.1 0.00 0.00 0.00 36 1017.4
20260905133004 89 173 2.6 6.1 0.00 0.00 0.00 36 1017.4
20260905132504 90 53 2.6 3.5 0.00 0.00 0.00 36 1017.2
20260905132005 90 87 1.7 4.3 0.00 0.00 0.00 36 1017.3
20260905131505 90 112 2.6 4.3 0.00 0.00 0.00 36 1017.3
20260905131005 90 187 1.7 3.5 0.00 0.00 0.00 37 1017.2
20260905130505 89 207 1.7 3.5 0.00 0.00 0.00 38 1017.2
20260905130005 89 203 2.6 3.5 0.00 0.00 0.00 38 1017.3
20260905125504 89 155 3.5 3.5 0.00 0.00 0.00 38 1017.1
20260905125004 89 82 0.9 3.5 0.00 0.00 0.00 38 1017.2
20260905124504 89 65 1.7 3.5 0.00 0.00 0.00 39 1017.2
20260905124005 89 59 1.7 3.5 0.00 0.00 0.00 39 1017.3
20260905123504 89 55 0.9 3.5 0.00 0.00 0.00 39 1017.1
20260905123004 89 78 2.6 4.3 0.00 0.00 0.00 39 1017.2
20260905122504 88 111 1.7 4.3 0.00 0.00 0.00 40 1017.2
20260905122005 88 132 1.7 4.3 0.00 0.00 0.00 40 1017.1
20260905121504 88 155 1.7 3.5 0.00 0.00 0.00 40 1017.2
20260905121005 89 127 1.7 3.5 0.00 0.00 0.00 40 1017.2
20260905120505 89 107 1.7 5.2 0.00 0.00 0.00 40 1017.1
20260905120005 89 48 1.7 5.2 0.00 0.00 0.00 40 1017.2
20260905115504 90 69 1.7 4.3 0.00 0.00 0.00 38 1017.1
20260905115004 90 67 1.7 3.5 0.00 0.00 0.00 34 1017.1
20260905114504 89 204 0.0 3.5 0.00 0.00 0.00 32 1017.2
20260905114005 89 197 1.7 4.3 0.00 0.00 0.00 33 1017.1
20260905113504 89 163 2.6 4.3 0.00 0.00 0.00 33 1017.0
20260905113005 88 152 1.7 3.5 0.00 0.00 0.00 34 1017.2
20260905112505 88 171 0.9 6.1 0.00 0.00 0.00 33 1017.2
20260905112005 87 166 1.7 7.0 0.00 0.00 0.00 34 1017.1
20260905111504 87 144 3.5 7.0 0.00 0.00 0.00 35 1017.3
20260905111005 87 141 1.7 3.5 0.00 0.00 0.00 35 1017.2
20260905110504 87 172 0.9 3.5 0.00 0.00 0.00 35 1017.4
20260905110005 87 208 2.6 5.2 0.00 0.00 0.00 35 1017.4
20260905105504 87 191 2.6 5.2 0.00 0.00 0.00 36 1017.3
20260905105005 87 90 3.5 4.3 0.00 0.00 0.00 36 1017.4
20260905104504 86 135 1.7 4.3 0.00 0.00 0.00 35 1017.4
20260905104004 86 138 1.7 3.5 0.00 0.00 0.00 36 1017.3
20260905103504 86 158 1.7 3.5 0.00 0.00 0.00 35 1017.2
20260905103005 86 184 1.7 3.5 0.00 0.00 0.00 36 1017.4
20260905102504 86 208 1.7 2.6 0.00 0.00 0.00 39 1017.5
20260905102005 86 215 1.7 2.6 0.00 0.00 0.00 39 1017.4
20260905101504 86 183 0.9 2.6 0.00 0.00 0.00 38 1017.4
20260905101005 86 166 1.7 2.6 0.00 0.00 0.00 38 1017.3
20260905100504 85 176 0.9 2.6 0.00 0.00 0.00 38 1017.3
20260905100005 85 125 0.9 2.6 0.00 0.00 0.00 38 1017.4
20260905095505 85 159 0.0 2.6 0.00 0.00 0.00 37 1017.5
20260905095005 84 202 0.9 3.5 0.00 0.00 0.00 37 1017.4
20260905094504 84 167 1.7 3.5 0.00 0.00 0.00 39 1017.5
20260905094004 84 176 0.0 3.5 0.00 0.00 0.00 40 1017.4
20260905093504 84 177 1.7 4.3 0.00 0.00 0.00 39 1017.6
20260905093005 84 181 2.6 4.3 0.00 0.00 0.00 39 1017.6
20260905092504 84 184 3.5 3.5 0.00 0.00 0.00 39 1017.5
20260905092004 84 170 1.7 3.5 0.00 0.00 0.00 39 1017.7
20260905091505 84 153 1.7 3.5 0.00 0.00 0.00 37 1017.4
20260905091005 84 181 1.7 3.5 0.00 0.00 0.00 36 1017.5
20260905083005 79 154 1.7 3.5 0.00 0.00 0.00 47 1017.3
20260905082504 79 152 1.7 4.3 0.00 0.00 0.00 48 1017.5
20260905082004 78 151 1.7 4.3 0.00 0.00 0.00 50 1017.3
20260905081504 77 188 2.6 4.3 0.00 0.00 0.00 51 1017.3
20260905081004 77 190 2.6 4.3 0.00 0.00 0.00 53 1017.2
20260905080503 76 175 1.7 2.6 0.00 0.00 0.00 54 1017.4
20260905080004 76 158 1.7 2.6 0.00 0.00 0.00 54 1017.1
20260905075504 76 143 0.0 1.7 0.00 0.00 0.00 53 1017.1
20260905075005 75 155 0.9 1.7 0.00 0.00 0.00 54 1017.1
20260905074504 75 153 0.9 1.7 0.00 0.00 0.00 54 1017.0
20260905074004 75 169 0.0 1.7 0.00 0.00 0.00 54 1017.0
20260905073504 74 169 0.9 1.7 0.00 0.00 0.00 53 1017.1
20260905073005 74 164 1.7 1.7 0.00 0.00 0.00 53 1017.1
20260905072504 74 145 1.7 1.7 0.00 0.00 0.00 53 1017.0
20260905072004 74 61 0.0 1.7 0.00 0.00 0.00 53 1017.0
20260905071504 74 56 1.7 1.7 0.00 0.00 0.00 53 1017.0
20260905071004 73 53 0.0 1.7 0.00 0.00 0.00 54 1016.9
20260905070503 72 56 0.0 1.7 0.00 0.00 0.00 54 1016.8
20260905070004 72 56 0.9 1.7 0.00 0.00 0.00 60 1016.8
20260905065504 71 45 0.0 0.9 0.00 0.00 0.00 61 1016.8
20260905065004 71 62 0.0 0.9 0.00 0.00 0.00 62 1016.6
20260905064504 70 80 0.0 0.9 0.00 0.00 0.00 62 1016.8